TimeCST,TemperatureF,Dew PointF,Humidity,Sea Level PressureIn,VisibilityMPH,Wind Direction,Wind SpeedMPH,Gust SpeedMPH,PrecipitationIn,Events,Conditions,WindDirDegrees,DateUTC
12:53 AM,54.0,34.0,47,30.37,10.0,Variable,6.9,-,N/A,,Scattered Clouds,0,2013-11-05 06:53:00
1:53 AM,52.0,34.0,50,30.36,10.0,East,5.8,-,N/A,,Scattered Clouds,90,2013-11-05 07:53:00
2:53 AM,52.0,34.0,50,30.36,10.0,ENE,8.1,-,N/A,,Partly Cloudy,70,2013-11-05 08:53:00
3:53 AM,51.1,34.0,52,30.36,10.0,Variable,5.8,-,N/A,,Partly Cloudy,0,2013-11-05 09:53:00
4:53 AM,50.0,34.0,54,30.36,10.0,East,8.1,-,N/A,,Partly Cloudy,90,2013-11-05 10:53:00
5:53 AM,51.1,34.0,52,30.37,10.0,NE,6.9,-,N/A,,Overcast,50,2013-11-05 11:53:00
6:53 AM,51.1,34.0,52,30.38,10.0,NE,5.8,-,N/A,,Overcast,40,2013-11-05 12:53:00
7:53 AM,52.0,34.0,50,30.40,10.0,ENE,9.2,-,N/A,,Overcast,70,2013-11-05 13:53:00
8:53 AM,54.0,34.0,47,30.40,10.0,Variable,3.5,-,N/A,,Mostly Cloudy,0,2013-11-05 14:53:00
9:53 AM,55.9,36.0,47,30.40,10.0,ENE,5.8,-,N/A,,Mostly Cloudy,70,2013-11-05 15:53:00
10:53 AM,57.0,36.0,45,30.39,10.0,Variable,6.9,-,N/A,,Mostly Cloudy,0,2013-11-05 16:53:00
11:53 AM,57.9,37.0,46,30.37,10.0,East,6.9,-,N/A,,Overcast,80,2013-11-05 17:53:00
12:53 PM,63.0,39.9,43,30.33,10.0,Calm,Calm,-,N/A,,Mostly Cloudy,0,2013-11-05 18:53:00
1:53 PM,66.0,41.0,40,30.31,10.0,ESE,8.1,16.1,N/A,,Scattered Clouds,110,2013-11-05 19:53:00
2:53 PM,66.9,43.0,42,30.29,10.0,ESE,9.2,-,N/A,,Scattered Clouds,110,2013-11-05 20:53:00
3:53 PM,66.9,44.1,44,30.28,10.0,East,5.8,-,N/A,,Scattered Clouds,100,2013-11-05 21:53:00
4:53 PM,64.9,45.0,48,30.28,10.0,East,5.8,-,N/A,,Scattered Clouds,80,2013-11-05 22:53:00
5:53 PM,62.1,44.1,52,30.29,10.0,East,6.9,-,N/A,,Clear,90,2013-11-05 23:53:00
6:53 PM,61.0,42.1,50,30.29,10.0,East,6.9,-,N/A,,Mostly Cloudy,90,2013-11-06 00:53:00
7:53 PM,61.0,41.0,48,30.29,10.0,ESE,9.2,-,N/A,,Scattered Clouds,110,2013-11-06 01:53:00
8:53 PM,61.0,41.0,48,30.30,10.0,East,6.9,-,N/A,,Overcast,100,2013-11-06 02:53:00
9:53 PM,59.0,39.9,49,30.30,10.0,ESE,8.1,16.1,N/A,,Mostly Cloudy,120,2013-11-06 03:53:00
10:53 PM,57.9,39.9,51,30.29,10.0,ESE,8.1,-,N/A,,Clear,110,2013-11-06 04:53:00
11:53 PM,57.0,39.9,53,30.28,10.0,East,6.9,-,N/A,,Clear,100,2013-11-06 05:53:00